Weather History for Poplar Bluff, MO

Change the Weather History Date:

Sunday, March 23, 2014

  Actual Average Record
Temperature  
Mean Temperature 44 °F -  
Max Temperature 51 °F 62 °F 85 °F (1929)
Min Temperature 35 °F 37 °F 23 °F (1960)
Degree Days  
Heating Degree Days 22    
Moisture  
Dew Point 20 °F    
Average Humidity 41    
Maximum Humidity 55    
Minimum Humidity 27    
Precipitation  
Precipitation 0.00 in - - ()
Sea Level Pressure  
Sea Level Pressure 30.33 in    
Wind  
Wind Speed 13 mph (NNE)    
Max Wind Speed 23 mph    
Max Gust Speed 23 mph    
Visibility 10 miles    
Events      
Averages and records for this station are not official NWS values.
T = Trace of Precipitation, MM = Missing Value Source: NWS Daily Summary

Daily Weather History Graph

Daily Weather History Graph

Search for Another Location

Airport:

Trip Planner

Search our weather history database for the weather conditions in past years. The results will help you decide how hot, cold, wet, or windy it might be!

Date:

Astronomy

Mar. 23, 2014 Rise Set
Actual Time 7:00 AM CDT 7:15 PM CDT
Civil Twilight 6:34 AM CDT 7:41 PM CDT
Nautical Twilight 6:04 AM CDT 8:12 PM CDT
Astronomical Twilight 5:33 AM CDT 8:42 PM CDT
Moon 1:25 AM CDT (3/23) 11:49 AM CDT (3/23)
Length of Visible Light 13h 07m
Length of Day
12h 15m
Waning Gibbous, 54% of the Moon is Illuminated
Mar 23
Waning Gibbous
Mar 23
Last Quarter
Mar 30
New
Apr 7
First Quarter
Apr 15
Full

Hourly Weather History & Observations

Time (CDT) Temp. Windchill Dew Point Humidity Pressure Visibility Wind Dir Wind Speed Gust Speed Precip Events Conditions
12:53 AM 44.1 °F 38.6 °F 26.1 °F 49% 30.25 in 10.0 mi NNE 10.4 mph - N/A   Mostly Cloudy
1:53 AM 42.1 °F 34.9 °F 27.0 °F 55% 30.25 in 10.0 mi NNE 13.8 mph - N/A   Partly Cloudy
2:53 AM 41.0 °F 31.9 °F 25.0 °F 53% 30.26 in 10.0 mi North 19.6 mph - N/A   Scattered Clouds
3:53 AM 41.0 °F 33.1 °F 23.0 °F 49% 30.27 in 10.0 mi North 15.0 mph - N/A   Mostly Cloudy
4:53 AM 39.9 °F 31.1 °F 21.9 °F 49% 30.28 in 10.0 mi North 17.3 mph - N/A   Clear
5:53 AM 39.0 °F 29.9 °F 19.9 °F 46% 30.31 in 10.0 mi North 17.3 mph 23.0 mph N/A   Scattered Clouds
6:53 AM 37.9 °F 29.6 °F 18.0 °F 45% 30.35 in 10.0 mi North 13.8 mph - N/A   Scattered Clouds
7:53 AM 36.0 °F 24.4 °F 16.0 °F 44% 30.37 in 10.0 mi North 23.0 mph - N/A   Clear
8:53 AM 37.0 °F 27.4 °F 17.1 °F 44% 30.38 in 10.0 mi North 17.3 mph - N/A   Clear
9:53 AM 39.0 °F 31.0 °F 16.0 °F 39% 30.39 in 10.0 mi North 13.8 mph - N/A   Clear
10:53 AM 41.0 °F 35.2 °F 17.1 °F 38% 30.40 in 10.0 mi North 9.2 mph - N/A   Clear
11:53 AM 43.0 °F 37.2 °F 17.1 °F 35% 30.40 in 10.0 mi NE 10.4 mph - N/A   Clear
12:53 PM 46.0 °F 39.3 °F 21.0 °F 37% 30.38 in 10.0 mi North 16.1 mph 20.7 mph N/A   Clear
1:53 PM 46.9 °F - 21.0 °F 36% 30.37 in 10.0 mi North 11.5 mph 20.7 mph N/A   Clear
2:53 PM 50.0 °F - 21.9 °F 33% 30.33 in 10.0 mi North 12.7 mph - N/A   Clear
3:53 PM 50.0 °F - 19.9 °F 31% 30.31 in 10.0 mi North 10.4 mph - N/A   Clear
4:53 PM 51.1 °F - 19.0 °F 28% 30.30 in 10.0 mi NNE 17.3 mph 20.7 mph N/A   Clear
5:53 PM 50.0 °F - 17.1 °F 27% 30.30 in 10.0 mi NNE 8.1 mph - N/A   Clear
6:53 PM 46.9 °F - 18.0 °F 32% 30.30 in 10.0 mi ENE 9.2 mph - N/A   Clear
7:53 PM 42.1 °F 37.1 °F 18.0 °F 38% 30.33 in 10.0 mi ENE 8.1 mph - N/A   Clear
8:53 PM 39.9 °F 34.5 °F 19.0 °F 43% 30.35 in 10.0 mi ENE 8.1 mph - N/A   Clear
9:53 PM 37.0 °F 31.6 °F 19.0 °F 48% 30.37 in 10.0 mi NE 6.9 mph - N/A   Clear
10:53 PM 37.0 °F 31.0 °F 17.1 °F 44% 30.36 in 10.0 mi NE 8.1 mph - N/A   Clear
11:53 PM 35.1 °F 30.1 °F 18.0 °F 50% 30.36 in 10.0 mi NE 5.8 mph - N/A   Clear